• In Romania
  • List of Countries
  • For 7 days
  • Water Temperature
  • Satellite Maps
  • Weather Map
  • Weather Widgets
  • user-avatar
    Login

    Hourly Weather Pisarevo

    Today, 22 July, Sunday

    Time Temperature Precipitation Wind Pressure Humidity
    00:00 +19°C° 0 mm 4 mps 739 mmHg 96%
    01:00 +19°C° 0 mm 4 mps 739 mmHg 96%
    02:00 +19°C° 0 mm 4 mps 739 mmHg 97%
    03:00 +19°C° 0 mm 3 mps 739 mmHg 98%
    04:00 +19°C° 0.1 mm 3 mps 739 mmHg 98%
    05:00 +19°C° 0.1 mm 4 mps 739 mmHg 97%
    06:00 +19°C° 0.1 mm 5 mps 739 mmHg 96%
    07:00 +19°C° 0 mm 5 mps 739 mmHg 96%
    08:00 +20°C° 0 mm 5 mps 739 mmHg 95%
    09:00 +20°C° 0 mm 5 mps 740 mmHg 94%
    10:00 +20°C° 0 mm 5 mps 740 mmHg 92%
    11:00 +21°C° 0 mm 5 mps 740 mmHg 91%
    12:00 +21°C° 0 mm 5 mps 740 mmHg 89%
    13:00 +21°C° 0 mm 5 mps 740 mmHg 87%
    14:00 +22°C° 0 mm 6 mps 740 mmHg 85%
    15:00 +22°C° 0 mm 6 mps 739 mmHg 83%
    16:00 +22°C° 0.3 mm 6 mps 739 mmHg 84%
    17:00 +22°C° 0.3 mm 5 mps 739 mmHg 84%
    18:00 +22°C° 0.3 mm 5 mps 739 mmHg 85%
    19:00 +21°C° 0.1 mm 5 mps 739 mmHg 87%
    20:00 +21°C° 0.1 mm 5 mps 739 mmHg 90%
    21:00 +20°C° 0.1 mm 5 mps 739 mmHg 93%
    22:00 +19°C° 0.3 mm 5 mps 739 mmHg 93%
    23:00 +19°C° 0.3 mm 5 mps 739 mmHg 93%

    Tomorrow, 23 July, Monday

    Time Temperature Precipitation Wind Pressure Humidity
    00:00 +19°C° 0.3 mm 5 mps 739 mmHg 93%
    01:00 +19°C° 0.1 mm 5 mps 739 mmHg 93%
    02:00 +19°C° 0.1 mm 5 mps 739 mmHg 93%
    03:00 +17°C° 0.1 mm 5 mps 739 mmHg 93%
    04:00 +17°C° 0.1 mm 5 mps 739 mmHg 93%
    05:00 +17°C° 0.1 mm 5 mps 739 mmHg 93%
    06:00 +17°C° 0.1 mm 5 mps 740 mmHg 93%
    07:00 +16°C° 0.1 mm 5 mps 740 mmHg 92%
    08:00 +16°C° 0.1 mm 6 mps 740 mmHg 92%
    09:00 +16°C° 0.1 mm 6 mps 740 mmHg 91%
    10:00 +17°C° 0.3 mm 6 mps 740 mmHg 90%
    11:00 +17°C° 0.3 mm 6 mps 740 mmHg 89%
    12:00 +19°C° 0.3 mm 6 mps 740 mmHg 88%
    13:00 +19°C° 0.5 mm 5 mps 740 mmHg 88%
    14:00 +20°C° 0.5 mm 5 mps 740 mmHg 88%
    15:00 +20°C° 0.5 mm 5 mps 740 mmHg 88%
    16:00 +20°C° 0.1 mm 5 mps 740 mmHg 88%
    17:00 +21°C° 0.1 mm 5 mps 740 mmHg 89%
    18:00 +21°C° 0.1 mm 5 mps 740 mmHg 89%
    19:00 +21°C° 0.6 mm 5 mps 740 mmHg 91%
    20:00 +20°C° 0.6 mm 5 mps 740 mmHg 93%
    21:00 +20°C° 0.6 mm 5 mps 740 mmHg 95%
    22:00 +20°C° 0.9 mm 5 mps 740 mmHg 95%
    23:00 +20°C° 0.9 mm 5 mps 740 mmHg 95%

    Day after tomorrow, 24 July, Tuesday

    Time Temperature Precipitation Wind Pressure Humidity
    00:00 +20°C° 0.9 mm 5 mps 741 mmHg 96%
    01:00 +20°C° 0.1 mm 5 mps 741 mmHg 96%
    02:00 +19°C° 0.1 mm 5 mps 741 mmHg 96%
    03:00 +19°C° 0.1 mm 4 mps 741 mmHg 96%
    04:00 +19°C° 0 mm 4 mps 741 mmHg 96%
    05:00 +19°C° 0 mm 4 mps 741 mmHg 96%
    06:00 +19°C° 0 mm 4 mps 741 mmHg 96%
    07:00 +20°C° 0 mm 4 mps 742 mmHg 93%
    08:00 +21°C° 0 mm 4 mps 742 mmHg 91%
    09:00 +22°C° 0 mm 4 mps 742 mmHg 89%
    10:00 +23°C° 0.3 mm 4 mps 742 mmHg 85%
    11:00 +25°C° 0.3 mm 4 mps 742 mmHg 81%
    12:00 +26°C° 0.3 mm 4 mps 743 mmHg 77%
    13:00 +27°C° 0.6 mm 4 mps 743 mmHg 76%
    14:00 +27°C° 0.6 mm 4 mps 743 mmHg 76%
    15:00 +27°C° 0.6 mm 5 mps 743 mmHg 75%
    16:00 +26°C° 1 mm 4 mps 743 mmHg 79%
    17:00 +25°C° 1 mm 4 mps 744 mmHg 83%
    18:00 +23°C° 1 mm 4 mps 744 mmHg 87%
    19:00 +22°C° 0.3 mm 4 mps 744 mmHg 89%
    20:00 +21°C° 0.3 mm 4 mps 744 mmHg 91%
    21:00 +20°C° 0.3 mm 3 mps 744 mmHg 94%
    22:00 +20°C° 0 mm 3 mps 744 mmHg 93%
    23:00 +19°C° 0 mm 3 mps 745 mmHg 93%

    25 July, Wednesday

    Time Temperature Precipitation Wind Pressure Humidity
    00:00 +19°C° 0 mm 3 mps 745 mmHg 92%
    01:00 +19°C° 0 mm 3 mps 745 mmHg 92%
    02:00 +18°C° 0 mm 3 mps 745 mmHg 91%
    03:00 +18°C° 0 mm 3 mps 745 mmHg 91%
    04:00 +18°C° 0 mm 4 mps 745 mmHg 88%
    05:00 +18°C° 0 mm 4 mps 745 mmHg 86%
    06:00 +17°C° 0 mm 5 mps 745 mmHg 84%
    07:00 +19°C° 0 mm 5 mps 745 mmHg 81%
    08:00 +20°C° 0 mm 6 mps 745 mmHg 78%
    09:00 +20°C° 0 mm 6 mps 745 mmHg 75%
    10:00 +21°C° 0 mm 6 mps 746 mmHg 71%
    11:00 +22°C° 0 mm 6 mps 746 mmHg 67%
    12:00 +23°C° 0 mm 6 mps 746 mmHg 63%
    13:00 +24°C° 0 mm 6 mps 746 mmHg 63%
    14:00 +24°C° 0 mm 6 mps 746 mmHg 63%
    15:00 +26°C° 0 mm 6 mps 746 mmHg 62%
    16:00 +25°C° 0 mm 5 mps 746 mmHg 65%
    17:00 +25°C° 0 mm 5 mps 746 mmHg 67%
    18:00 +25°C° 0 mm 4 mps 746 mmHg 69%
    19:00 +23°C° 0 mm 4 mps 746 mmHg 71%
    20:00 +22°C° 0 mm 4 mps 747 mmHg 72%
    21:00 +21°C° 0 mm 4 mps 747 mmHg 73%
    22:00 +21°C° 0 mm 4 mps 747 mmHg 76%
    23:00 +20°C° 0 mm 4 mps 747 mmHg 79%

    26 July, Thursday

    Time Temperature Precipitation Wind Pressure Humidity
    00:00 +20°C° 0 mm 4 mps 747 mmHg 81%
    01:00 +19°C° 0 mm 4 mps 747 mmHg 83%
    02:00 +18°C° 0 mm 4 mps 747 mmHg 85%
    03:00 +18°C° 0 mm 3 mps 747 mmHg 87%
    04:00 +18°C° 0 mm 4 mps 747 mmHg 87%
    05:00 +19°C° 0 mm 4 mps 747 mmHg 86%
    06:00 +19°C° 0 mm 4 mps 747 mmHg 85%
    07:00 +20°C° 0 mm 4 mps 748 mmHg 82%
    08:00 +21°C° 0 mm 5 mps 748 mmHg 79%
    09:00 +22°C° 0 mm 5 mps 748 mmHg 76%
    10:00 +23°C° 0 mm 5 mps 748 mmHg 76%
    11:00 +23°C° 0 mm 5 mps 748 mmHg 75%
    12:00 +25°C° 0 mm 5 mps 748 mmHg 75%
    13:00 +26°C° 0 mm 4 mps 748 mmHg 73%
    14:00 +27°C° 0 mm 4 mps 748 mmHg 72%
    15:00 +27°C° 0 mm 4 mps 748 mmHg 71%
    16:00 +27°C° 0.1 mm 3 mps 748 mmHg 72%
    17:00 +27°C° 0.1 mm 3 mps 748 mmHg 73%
    18:00 +27°C° 0.1 mm 3 mps 748 mmHg 75%
    19:00 +26°C° 0 mm 3 mps 749 mmHg 76%
    20:00 +25°C° 0 mm 3 mps 749 mmHg 78%
    21:00 +23°C° 0 mm 4 mps 749 mmHg 80%
    22:00 +24°C° 0.1 mm 3 mps 749 mmHg 81%
    23:00 +22°C° 0.1 mm 3 mps 749 mmHg 83%

    27 July, Friday

    Time Temperature Precipitation Wind Pressure Humidity
    00:00 +22°C° 0.1 mm 3 mps 749 mmHg 85%
    01:00 +21°C° 0 mm 3 mps 749 mmHg 86%
    02:00 +21°C° 0 mm 3 mps 750 mmHg 87%
    03:00 +20°C° 0 mm 3 mps 750 mmHg 88%
    04:00 +20°C° 0 mm 3 mps 750 mmHg 88%
    05:00 +20°C° 0 mm 3 mps 750 mmHg 88%
    06:00 +20°C° 0 mm 3 mps 750 mmHg 87%
    07:00 +21°C° 0 mm 3 mps 750 mmHg 83%
    08:00 +23°C° 0 mm 4 mps 750 mmHg 78%
    09:00 +25°C° 0 mm 4 mps 751 mmHg 73%
    10:00 +27°C° 0 mm 4 mps 751 mmHg 68%
    11:00 +28°C° 0 mm 5 mps 751 mmHg 62%
    12:00 +29°C° 0 mm 5 mps 750 mmHg 57%
    13:00 +29°C° 0 mm 5 mps 750 mmHg 56%
    14:00 +29°C° 0 mm 5 mps 750 mmHg 56%
    15:00 +29°C° 0 mm 4 mps 750 mmHg 56%
    16:00 +29°C° 0 mm 4 mps 750 mmHg 61%
    17:00 +28°C° 0 mm 3 mps 750 mmHg 65%
    18:00 +28°C° 0 mm 3 mps 750 mmHg 70%
    19:00 +26°C° 0 mm 2 mps 750 mmHg 72%
    20:00 +25°C° 0 mm 2 mps 750 mmHg 73%
    21:00 +24°C° 0 mm 2 mps 750 mmHg 75%
    22:00 +23°C° 0 mm 2 mps 750 mmHg 77%
    23:00 +21°C° 0 mm 2 mps 750 mmHg 78%
    Show more